Карточка аэропорта UOOO

Внимание!
Информация на этой странице в стадии наполнения.
Если вы не увидели какой-то информации, или заметили неточность - пожалуйста сообщите нам!
Спасибо!
Команда RU-STAFF
Название аэропортаАлыкель
Название аэропорта (англ.)Alykel
Превышение574 ft. (175 m.)
Координаты69°19.02', 87°19.02'
Высота перехода1200m
Эшелон переходаQFE>744:FL60;744>QFE>717:FL70;717>QFE:FL80
Коды ответчика5401-5427
Зона ОрВДКрасноярск РПИ (UNKL)
Данные METARUOOO 121400Z 17002MPS 150V210 CAVOK 15/09 Q1012 R19/CLRD60 NOSIG RMK QFE743/0990
Проноз погоды (TAF)UOOO 121345Z 1215/1315 18005G10MPS 9999 SCT016CB TEMPO 1221/1309 4700 -SHRA SCT005 BKN014CB
NOTAMshow/hide NOTAM
AWOS   TABLE

Информация о ВПП

ВПП Длина ВПП (м.) Покрытие Курс ВПП Частота ILS
193430Бетон193110.3
013430Бетон13109.5

Диспетчерские позиции

Позывной Наименование органа УВД Частота
UOOO_GNDНорильск - Руление121.700
UOOO_TWRНорильск - Старт118.300
UOOO_APPНорильск - Круг120.400



Спутниковое изображение